Location: Trout Lake
(45.9980°N, 121.5270°W)
Time: 20:11:49
(UTC-07:00)

Daily predictions for brighter satellites

Satellite Brightness Start Highest point End
(mag) Time Altitude Azimuth Time Altitude Azimuth Time Altitude Azimuth
Cosmos 1821 Rocket 3.9 20:18:25 10° S 20:24:28 71° E 20:30:33 10° NNE
Meteor 1-11 Rocket 4.3 20:21:50 10° SSW 20:27:21 64° WNW 20:32:52 10° N
Cosmos 1605 Rocket 4.3 20:21:33 10° SSE 20:27:31 45° E 20:33:26 10° NNE
Cosmos 1656 Rocket 4.5 20:23:33 10° SW 20:29:03 58° WNW 20:34:31 10° NNE
Iridium 4 Rocket 4.2 20:26:05 10° NNE 20:30:47 33° ENE 20:35:04 10° SE
Okean 2 3.4 20:27:43 10° N 20:31:56 85° E 20:36:05 10° S
Cosmos 1975 3.8 20:31:09 10° SSE 20:34:37 27° E 20:38:07 10° NNE
DELTA 2 R/B (1) 4.2 20:30:41 10° WSW 20:35:57 43° S 20:41:10 10° ESE
Lacrosse 5 rocket 1.0 20:38:00 10° NW 20:41:47 76° NE 20:45:08 12° SE
BREEZE-M DEB (TANK) 1.9 20:42:33 10° WNW 20:44:30 47° NNE 20:47:27 10° E
Cosmos 1315 Rocket 4.5 20:41:15 10° SW 20:45:01 39° WNW 20:48:53 10° N
Cosmos 1892 Rocket 4.2 20:42:08 10° NNW 20:46:34 60° W 20:50:58 10° S
H-2A R/B 3.3 20:43:39 11° ESE 20:46:40 23° ENE 20:49:58 10° NNE
Cosmos 1626 Rocket 3.8 20:43:21 10° N 20:47:41 52° ENE 20:51:57 10° SSE
Cosmos 1697 Rocket 3.7 20:44:52 10° SSE 20:49:17 24° ESE 20:53:42 10° NE
EO 1 Delta rocket 3.9 20:45:28 10° NNE 20:50:06 78° E 20:55:14 10° S
H-2A R/B 3.2 20:46:53 10° S 20:50:44 68° W 20:54:39 10° NNW
ALOS 2.8 20:46:22 10° S 20:50:58 61° W 20:55:38 10° NNW
Cosmos 2278 3.7 20:45:58 10° SSW 20:51:33 65° ESE 20:57:13 10° NNE
ERS-1 Rocket 3.2 20:48:26 10° SE 20:53:18 53° ENE 20:58:12 10° N
Cosmos 2123 Rocket 4.1 20:47:24 10° N 20:53:37 86° W 20:59:48 10° S
Cosmos 1461 3.0 20:49:39 10° NW 20:53:44 68° WSW 20:57:40 10° SSE
Cosmos 1455 Rocket 3.0 20:50:09 10° S 20:54:28 88° WNW 20:58:51 10° N
Cosmos 1898 Rocket 4.0 20:49:57 10° NNW 20:55:04 46° ENE 20:59:26 14° SE
Cosmos 1602 Rocket 3.6 20:51:42 10° N 20:56:10 64° E 21:00:33 10° SSE
NOSS 2-1 (D) 4.1 20:56:54 10° SW 21:00:47 58° NW 21:05:23 10° NNE
NOSS 2-1 (C) 4.1 20:57:55 10° SW 21:01:49 59° NW 21:06:25 10° NNE
Meteor 1-12 Rocket 4.3 20:57:36 10° S 21:03:15 66° E 21:09:04 10° NNE
Cosmos 2369 3.6 20:59:16 10° SSW 21:04:55 73° ESE 21:10:37 10° NNE
Cosmos 1939 Rocket 3.1 21:03:34 13° SSE 21:07:07 55° ENE 21:11:13 10° N
Cosmos 1980 Rocket 3.3 21:08:26 15° SE 21:11:27 22° E 21:15:45 10° NE
Cosmos 1459 Rocket 4.4 21:06:30 10° SSE 21:12:03 40° E 21:17:41 10° NNE
Resurs 01 Rocket 4.4 21:09:57 10° SW 21:12:51 17° W 21:15:47 10° NW
ATLAS CENTAUR R/B 4.3 21:09:52 10° W 21:13:52 24° NW 21:17:48 10° NNE
ARGOS 4.3 21:12:23 17° ESE 21:15:12 26° ENE 21:19:37 10° N
Lacrosse 5 2.1 21:10:15 10° NW 21:15:17 61° NE 21:18:37 21° ESE
Cosmos 2084 3.3 21:12:27 10° NW 21:16:28 71° NE 21:18:57 23° SE
Cosmos 468 Rocket 4.3 21:12:14 10° S 21:16:59 40° ESE 21:21:46 10° NE
USA 186 3.7 21:15:36 10° SSW 21:18:17 27° W 21:20:51 10° NW
OTV 4 2.7 21:17:53 10° SW 21:19:21 13° SSW 21:19:48 13° S
Tiangong 1 1.4 21:16:26 10° WSW 21:19:25 45° S 21:20:22 32° SE
Cosmos 220 Rocket 4.0 21:15:39 10° NNW 21:19:53 75° WSW 21:23:17 15° SSE
SPOT 5 3.2 21:20:37 20° SE 21:23:49 49° ENE 21:28:29 10° N
Cosmos 1153 Rocket 4.4 21:18:13 10° S 21:24:25 83° E 21:30:36 10° N
Cosmos 1814 Rocket 4.4 21:20:18 10° S 21:25:16 41° ESE 21:30:14 10° NE
Cosmos 1500 3.0 21:28:22 11° S 21:31:57 77° E 21:35:44 10° NNE
RESURS DK-1 2.5 21:28:26 10° NNW 21:32:33 57° ENE 21:34:13 32° SE
Cosmos 1606 Rocket 4.3 21:31:48 29° ESE 21:32:58 34° E 21:36:57 10° NNE
MetOp-B 4.3 21:30:43 24° SE 21:33:50 55° ENE 21:39:04 10° N
CZ-4 DEB 4.0 21:32:15 12° SSW 21:34:51 39° W 21:37:51 10° NNW
Cosmos 2227 Rocket 3.4 21:30:56 10° NW 21:36:09 39° WSW 21:41:21 10° S
PSLV R/B 3.9 21:36:13 34° ENE 21:36:13 34° ENE 21:39:01 10° N
USA 215 3.7 21:32:14 18° E 21:37:01 55° NNE 21:43:21 10° NW
Cosmos 2263 Rocket 4.0 21:33:34 10° N 21:37:14 18° NE 21:39:56 13° ENE
Cosmos 1802 Rocket 4.2 21:32:30 13° SSE 21:38:08 55° E 21:44:24 10° NNE
Cosmos 2322 Rocket 4.1 21:45:09 13° ENE 21:45:09 13° ENE 21:46:19 10° ENE
CZ-4 SHROUD 3.9 21:43:50 37° ENE 21:43:50 37° ENE 21:46:33 10° N
Cosmos 1340 2.8 21:40:12 10° N 21:43:56 54° ENE 21:44:44 44° ESE
Cosmos 1656 3.6 21:39:34 10° SSW 21:45:12 86° ESE 21:50:48 10° NNE
Cosmos 2298 Rocket 4.3 21:40:33 10° NNW 21:45:49 65° WSW 21:49:30 20° S
Cosmos 2297 Rocket 3.3 21:46:33 10° NW 21:51:49 41° WSW 21:56:28 13° S
SL-19 R/B 4.5 21:48:13 10° NNE 21:53:30 44° E 21:55:05 35° SE
Cosmos 2227 4.3 21:49:19 10° NNW 21:55:03 62° ENE 21:57:19 36° SE
Cosmos 2016 Rocket 3.9 21:52:14 22° SSE 21:56:11 63° E 22:02:18 10° NNE
Cosmos 1726 Rocket 3.7 21:56:28 46° SE 21:57:08 51° E 22:01:24 10° NNE
Envisat 3.6 21:54:39 16° S 21:58:38 53° W 22:03:37 10° NNW
YAOGAN 6 2.5 21:58:34 59° SSE 21:59:12 85° ENE 22:02:56 10° N
H-2A R/B 2.9 22:00:30 30° E 22:01:21 32° ENE 22:05:41 10° N
Cosmos 1937 Rocket 3.7 21:56:14 10° NNW 22:01:29 71° WSW 22:04:03 31° S
Terra 3.0 22:02:30 26° ENE 22:03:00 26° ENE 22:06:57 10° N
ASTEX 1 3.3 21:58:20 10° N 22:03:22 75° E 22:05:29 35° S
Cosmos 1743 2.8 22:03:30 37° SSW 22:04:59 80° W 22:08:56 10° N
Cosmos 1825 Rocket 3.8 22:03:32 10° NNW 22:07:58 68° W 22:09:38 36° SSW
Cosmos 2173 Rocket 4.1 22:02:38 10° SSW 22:09:01 80° W 22:15:23 10° N
Cosmos 2098 Rocket 4.1 22:07:38 30° SSE 22:11:11 63° E 22:17:01 10° NNE
Cosmos 1953 Rocket 3.7 22:12:33 10° NNW 22:17:00 75° W 22:18:05 50° SSW
Cosmos 990 Rocket 4.1 22:11:53 10° NNW 22:17:08 70° WSW 22:18:54 41° S
USA 245 4.5 22:15:08 35° SSE 22:17:57 87° WSW 22:24:22 10° NNW
Cosmos 2100 Rocket 4.4 22:13:28 10° SSW 22:19:41 61° WNW 22:25:52 10° N
SPOT 1/Viking Rocket 3.5 22:18:32 47° SSE 22:20:08 89° WSW 22:25:23 10° NNW
Lacrosse 5 rocket 3.4 22:18:31 10° W 22:20:28 14° WSW 22:20:53 14° SW
Cosmos 2061 Rocket 4.3 22:14:39 10° SSW 22:20:55 66° W 22:27:10 10° N
H-2A R/B 3.3 22:20:48 24° SW 22:22:32 34° W 22:26:20 10° NNW
CZ-4B R/B 3.3 22:18:09 10° NNE 22:22:52 59° ESE 22:22:56 59° ESE
Tsikada Rocket 4.0 22:16:40 10° N 22:23:07 75° E 22:25:17 44° SSE
Cosmos 967 Rocket 4.4 22:17:24 10° NW 22:23:48 81° WSW 22:25:50 46° SSE
Cosmos 1864 Rocket 4.4 22:21:48 43° SSE 22:23:48 68° E 22:29:53 10° NNE
Cosmos 1842 3.2 22:20:30 10° N 22:24:19 83° NNW 22:24:19 83° NNW
GP-B 4.4 22:28:29 10° NNE 22:31:16 28° NE 22:31:16 28° NE
Cosmos 1697 Rocket 3.3 22:27:17 10° SW 22:32:49 57° WNW 22:38:24 10° NNE
Cosmos 1758 Rocket 4.0 22:31:48 10° NNW 22:36:04 54° W 22:36:41 49° SW
SL-16 R/B 3.1 22:39:10 33° ENE 22:39:10 33° ENE 22:42:54 10° NE
NOAA 11 4.4 22:38:49 46° SSW 22:40:21 66° WSW 22:45:49 10° NNW
Cosmos 2228 3.3 22:42:45 58° NNE 22:42:45 58° NNE 22:46:15 10° N
IGS 5A 4.3 22:43:02 42° NNE 22:43:02 42° NNE 22:46:12 10° N
Cosmos 1125 Rocket 3.3 22:38:14 10° NNW 22:43:28 84° ENE 22:43:49 77° SE
Cosmos 1763 Rocket 3.6 22:44:11 39° SW 22:46:03 70° WNW 22:51:08 10° NNE
Cosmos 1816 Rocket 4.4 22:42:55 10° N 22:49:19 89° W 22:50:46 57° S
Cosmos 2346 Rocket 4.4 22:44:15 10° N 22:50:29 66° E 22:51:10 61° ESE
Meteor 2-5 Rocket 3.9 22:47:58 10° N 22:53:51 59° ENE 22:54:06 59° E
Cosmos 1725 Rocket 4.1 22:52:04 39° SSW 22:54:27 72° W 23:00:43 10° N
Cosmos 1980 Rocket 2.6 22:50:00 13° SW 22:54:58 61° WNW 23:00:39 10° NNE
ARGOS 3.8 22:53:54 41° SW 22:55:09 50° W 23:00:24 10° NNW
Cosmos 2360 Rocket 4.2 22:58:48 15° ENE 22:58:48 15° ENE 23:00:06 10° NE
Cosmos 1666 3.9 22:57:14 39° NW 22:57:14 39° NW 23:00:24 10° N
Meteor 1-15 Rocket 4.4 22:55:14 50° SSW 22:56:49 77° WNW 23:02:44 10° N
Lacrosse 5 3.1 22:53:36 10° WNW 22:57:49 30° WSW 22:57:49 30° WSW
Cosmos 2058 Rocket 3.9 22:59:08 45° W 22:59:41 47° WNW 23:04:04 10° N
DELTA 2 DEB (DPAF) 4.4 23:01:08 65° NW 23:01:08 65° NW 23:05:06 10° NNW
Cosmos 841 Rocket 4.1 23:05:06 36° WSW 23:06:56 54° WNW 23:12:04 10° NNE
DMSP B5D2-2 4.2 23:03:44 10° NNE 23:08:20 65° NE 23:08:20 65° NE
CZ-4C R/B 4.5 23:16:50 47° WNW 23:16:50 47° WNW 23:20:27 10° NNW
Meteor 2-17 Rocket 4.4 23:16:06 65° SW 23:16:55 75° W 23:23:00 10° N
USA 215 3.3 23:19:35 59° SSW 23:19:59 60° SW 23:26:28 10° WNW
Meteor 1-24 Rocket 4.1 23:14:52 10° N 23:20:33 58° ENE 23:20:33 58° ENE
Cosmos 2233 Rocket 4.1 23:21:04 62° SW 23:21:58 72° W 23:28:14 10° N
Cosmos 2263 Rocket 2.2 23:16:27 10° NNW 23:21:38 76° N 23:21:38 76° N
Cosmos 2322 Rocket 2.2 23:26:55 73° N 23:26:55 73° N 23:32:04 10° NNE
Cosmos 540 Rocket 4.0 23:31:09 54° N 23:31:09 54° N 23:35:08 10° NNE
Cosmos 2034 Rocket 4.4 23:40:39 51° ENE 23:40:39 51° ENE 23:45:41 10° NNE
Terra 3.0 23:41:24 36° WNW 23:41:24 36° WNW 23:45:03 10° NNW
H-2A R/B 3.2 23:41:08 34° W 23:41:08 34° W 23:45:14 10° NNW
GEOS 3 Rocket 4.5 23:46:27 10° NNE 23:51:19 46° NW 23:52:29 39° WNW
